Cut Bank, MT

8:03 PM MST on December 10, 2019 (GMT -0700)
Cut Bank Municipal

Weather History for KCTB - August, 2019

Change the Weather History Date:

Monday, August 5, 2019

  Actual Average Record
Temperature  
Mean Temperature 68 °F 66 °F  
Max Temperature 90 °F 82 °F 107 °F (1961)
Min Temperature 45 °F 50 °F 34 °F (1924)
Degree Days  
Heating Degree Days 0 2  
Month to date heating degree days 0 10  
Since 1 June heating degree days 315 329  
Since 1 July heating degree days 93 96  
Cooling Degree Days 2 3  
Month to date cooling degree days 27 15  
Year to date cooling degree days 80 104  
Since 1 June cooling degree days 80 102  
Growing Degree Days 18 (Base 50)    
Moisture  
Dew Point 36 °F    
Average Humidity 37    
Maximum Humidity 71    
Minimum Humidity 9    
Precipitation  
Precipitation 0.00 in 0.03 in 0.70 in (1942)
Month to date precipitation 0.01 0.18  
Year to date precipitation 7.42 7.65  
Snow  
Snow - - - ()
Snow Depth 0.00 in    
Sea Level Pressure  
Sea Level Pressure 30.00 in    
Wind  
Wind Speed 7 mph ()    
Max Wind Speed 23 mph    
Max Gust Speed 30 mph    
Visibility 9.8 miles    
Events      
T = Trace of Precipitation, MM = Missing Value Source: Averaged Metar Reports

Daily Weather History Graph

Daily Weather History Graph

Search for Another Location

Airport or City:

Astronomy

Aug. 05, 2019 Rise Set
Actual Time 6:08 AM MDT 9:01 PM MDT
Civil Twilight 5:32 AM MDT 9:37 PM MDT
Nautical Twilight 4:45 AM MDT 10:23 PM MDT
Astronomical Twilight 3:48 AM MDT 11:19 PM MDT
Moon 11:54 AM MDT (8/5) 11:47 PM MDT (8/5)
Length of Visible Light 16h 05m
Length of Day
14h 52m
Waxing Crescent, 28% of the Moon is Illuminated
Aug 5
Waxing Crescent
Aug 7
First Quarter
Aug 15
Full
Aug 23
Last Quarter
Aug 30
New

Hourly Weather History & Observations

Time (MDT) Temp. Dew Point Humidity Pressure Visibility Wind Dir Wind Speed Gust Speed Precip Events Conditions
12:56 AM 52.0 °F 37.9 °F 59% 30.09 in 10.0 mi NNW 8.1 mph - N/A   Clear
1:56 AM 53.1 °F 37.9 °F 57% 30.09 in 10.0 mi WNW 8.1 mph - N/A   Clear
2:56 AM 53.1 °F 39.9 °F 61% 30.09 in 10.0 mi NW 9.2 mph - N/A   Clear
3:56 AM 48.9 °F 39.9 °F 71% 30.10 in 10.0 mi West 8.1 mph - N/A   Clear
4:56 AM 48.0 °F 37.9 °F 68% 30.09 in 10.0 mi North 4.6 mph - N/A   Clear
5:56 AM 48.0 °F 39.0 °F 71% 30.08 in 10.0 mi North 3.5 mph - N/A   Clear
6:56 AM 48.0 °F 39.0 °F 71% 30.09 in 10.0 mi NW 4.6 mph - N/A   Clear
7:56 AM 55.0 °F 41.0 °F 59% 30.08 in 10.0 mi Calm Calm - N/A   Clear
8:56 AM 64.0 °F 41.0 °F 43% 30.07 in 10.0 mi ENE 3.5 mph - N/A   Clear
9:56 AM 68.0 °F 39.9 °F 36% 30.06 in 10.0 mi ESE 5.8 mph - N/A   Clear
10:56 AM 75.0 °F 37.0 °F 25% 30.03 in 10.0 mi South 9.2 mph - N/A   Clear
11:56 AM 79.0 °F 37.9 °F 23% 30.01 in 10.0 mi South 12.7 mph 23.0 mph N/A   Clear
12:56 PM 82.9 °F 35.1 °F 18% 29.99 in 10.0 mi South 15.0 mph 19.6 mph N/A   Clear
1:56 PM 82.9 °F 35.1 °F 18% 29.97 in 10.0 mi Calm Calm - N/A   Clear
2:56 PM 86.0 °F 34.0 °F 16% 29.94 in 10.0 mi Variable 6.9 mph - N/A   Clear
3:56 PM 89.1 °F 27.0 °F 11% 29.92 in 10.0 mi West 15.0 mph 25.3 mph N/A   Clear
4:56 PM 88.0 °F 27.0 °F 11% 29.92 in 6.0 mi WSW 13.8 mph 26.5 mph N/A   Haze
5:56 PM 88.0 °F 23.0 °F 9% 29.91 in 8.0 mi West 8.1 mph - N/A   Clear
6:56 PM 86.0 °F 27.0 °F 12% 29.91 in 10.0 mi West 13.8 mph - N/A   Clear
7:56 PM 81.0 °F 36.0 °F 20% 29.91 in 10.0 mi WNW 9.2 mph - N/A   Clear
8:56 PM 72.0 °F 35.1 °F 26% 29.91 in 10.0 mi West 11.5 mph - N/A   Clear
9:56 PM 66.0 °F 35.1 °F 32% 29.94 in 10.0 mi West 6.9 mph - N/A   Clear
10:56 PM 64.9 °F 36.0 °F 34% 29.93 in 10.0 mi NW 12.7 mph - N/A   Clear
11:56 PM 64.0 °F 35.1 °F 34% 29.94 in 10.0 mi Calm Calm - N/A   Clear